Location: Borz?cin
(51.1714°N, 19.6030°E)
Time: 08:14:58
(UTC+00:00)

BREEZE-M DEB (TANK) - Pass Details

Date: 19 May 2025
Orbit: 281 x 12174 km, 49.5° (Epoch: 16 June)

Event Time Altitude Azimuth Distance (km) Brightness Sun altitude
Rises 20:37:37 0° 273° (W) 10,284 9.2 -14.1°
Reaches altitude 10° 20:47:36 10° 274° (W) 7,139 8.3 -14.8°
Maximum altitude 21:03:54 77° 192° (SSW) 1,233 3.9 -15.9°
Enters shadow 21:07:53 14° 107° (ESE) 1,934 4.7 -16.2°
